Terminal Aerodrome Forecast
Issued by NWS

Home | Current Version | Previous Version | Graphics & Text | Print | Product List | Glossary On
Versions: 1 2 3 4 5 6 7 8 9 10 11 12 13 14 15 16 17 18 19 20 21 22 23 24 25 26 27 28 29 30 31 32 33 34 35 36 37 38 39 40 41 42
000
FTUS43 KGRB 270500
TAFRHI
TAF
KRHI 270537Z 2706/2806 01005KT 3SM -SN BR OVC008
      TEMPO 2706/2710 1 1/2SM -SN BKN004
     FM271000 02004KT 1SM BR OVC004
     FM271200 03003KT 3/4SM BR OVC004
     FM271700 34005KT 3SM -SN BR BKN008 OVC018
     FM272000 29009KT 5SM -SN BKN018
     FM272200 29008KT P6SM SCT020 BKN040
     FM280200 26006KT P6SM SCT040 BKN120=

USA.gov is the U.S. government's official web portal to all federal, state and local government web resources and services.